Sheridan, WY

11:42 PM MDT on September 24, 2016 (GMT -0600)
Sheridan County

Weather History for KSHR - December, 2011

Change the Weather History Date:

Friday, December 23, 2011

  Actual Average Record
Temperature  
Mean Temperature 28 °F 22 °F  
Max Temperature 44 °F 35 °F 60 °F (1955)
Min Temperature 11 °F 10 °F -28 °F (1983)
Degree Days  
Heating Degree Days 37 43  
Month to date heating degree days 964 966  
Since 1 July heating degree days 2588 2844  
Cooling Degree Days 0 0  
Month to date cooling degree days 0 0  
Year to date cooling degree days 511 419  
Moisture  
Dew Point 12 °F    
Average Humidity 58    
Maximum Humidity 76    
Minimum Humidity 40    
Precipitation  
Precipitation 0.00 in 0.02 in 0.18 in (1992)
Month to date precipitation 0.31 0.43  
Year to date precipitation 18.49 14.03  
Sea Level Pressure  
Sea Level Pressure 30.33 in    
Wind  
Wind Speed 2 mph (SSW)    
Max Wind Speed 9 mph    
Max Gust Speed 9 mph    
Visibility 10 miles    
Events      
T = Trace of Precipitation, MM = Missing Value Source: NWS Daily Summary

Daily Weather History Graph

Daily Weather History Graph

Search for Another Location

Airport or City:

Trip Planner

Search our weather history database for the weather conditions in past years. The results will help you decide how hot, cold, wet, or windy it might be!

Date:

Astronomy

Dec. 23, 2011 Rise Set
Actual Time 7:43 AM MST 4:30 PM MST
Civil Twilight 7:09 AM MST 5:04 PM MST
Nautical Twilight 6:32 AM MST 5:41 PM MST
Astronomical Twilight 5:56 AM MST 6:17 PM MST
Moon 6:36 AM MST (12/23) 3:42 PM MST (12/23)
Length of Visible Light 9h 55m
Length of Day
8h 47m
Waning Crescent, 1% of the Moon is Illuminated
Dec 23
Waning Crescent
Dec 24
New
Dec 31
First Quarter
Jan 9
Full
Jan 16
Last Quarter

Hourly Weather History & Observations

Time (MST) Temp. Windchill Dew Point Humidity Pressure Visibility Wind Dir Wind Speed Gust Speed Precip Events Conditions
12:53 AM 14.0 °F - 6.1 °F 71% 30.33 in 10.0 mi Calm Calm - N/A   Clear
1:53 AM 12.0 °F 4.1 °F 5.0 °F 73% 30.33 in 10.0 mi SSW 4.6 mph - N/A   Clear
2:53 AM 14.0 °F - 6.1 °F 71% 30.35 in 10.0 mi Calm Calm - N/A   Clear
3:53 AM 15.1 °F - 5.0 °F 64% 30.34 in 10.0 mi Calm Calm - N/A   Clear
4:53 AM 14.0 °F - 5.0 °F 67% 30.18 in 10.0 mi Calm Calm - N/A   Clear
5:53 AM 12.0 °F - 3.9 °F 70% 30.38 in 10.0 mi Calm Calm - N/A   Clear
6:53 AM 14.0 °F - 5.0 °F 67% 30.41 in 10.0 mi Calm Calm - N/A   Clear
7:53 AM 19.0 °F 12.3 °F 7.0 °F 59% 30.39 in 10.0 mi SSW 4.6 mph - N/A   Clear
8:53 AM 18.0 °F 11.1 °F 10.9 °F 74% 30.39 in 10.0 mi South 4.6 mph - N/A   Clear
9:53 AM 30.9 °F - 18.0 °F 59% 30.35 in 10.0 mi Calm Calm - N/A   Clear
10:53 AM 35.6 °F 32.8 °F 17.6 °F 48% 30.18 in 10.0 mi South 3.5 mph - N/A   Clear
11:53 AM 37.9 °F - 21.9 °F 53% 30.29 in 10.0 mi Calm Calm - N/A   Clear
12:53 PM 44.1 °F - 21.9 °F 42% 30.25 in 10.0 mi Calm Calm - N/A   Clear
1:53 PM 41.0 °F 35.8 °F 24.1 °F 51% 30.25 in 10.0 mi SSW 8.1 mph - N/A   Clear
2:53 PM 43.0 °F - 21.9 °F 43% 30.24 in 10.0 mi Calm Calm - N/A   Clear
3:53 PM 34.0 °F 31.0 °F 21.0 °F 59% 30.26 in 10.0 mi SW 3.5 mph - N/A   Clear
4:53 PM 28.9 °F 21.9 °F 15.1 °F 56% 30.30 in 10.0 mi SSW 6.9 mph - N/A   Clear
5:53 PM 26.1 °F 19.4 °F 12.9 °F 58% 30.35 in 10.0 mi South 5.8 mph - N/A   Clear
6:53 PM 23.0 °F 18.4 °F 10.0 °F 58% 30.36 in 10.0 mi SSW 3.5 mph - N/A   Clear
7:53 PM 21.9 °F 17.2 °F 10.9 °F 63% 30.37 in 10.0 mi NW 3.5 mph - N/A   Clear
8:53 PM 21.9 °F - 10.9 °F 63% 30.40 in 10.0 mi Calm Calm - N/A   Clear
9:53 PM 18.0 °F - 9.0 °F 68% 30.40 in 10.0 mi Calm Calm - N/A   Clear
10:53 PM 21.0 °F 16.2 °F 9.0 °F 60% 30.38 in 10.0 mi SW 3.5 mph - N/A   Clear
11:53 PM 19.0 °F 13.9 °F 8.1 °F 62% 30.39 in 10.0 mi SW 3.5 mph - N/A   Clear